Regional Weather Roundup
Issued by NWS

Home | Current Version | Previous Version | Graphics & Text | Print | Product List | Glossary Off
Versions: 1 2 3 4 5 6 7 8 9 10 11 12 13 14 15 16 17 18 19 20 21 22 23 24 25 26 27 28 29 30 31 32 33 34 35 36 37 38 39 40 41 42 43 44 45 46 47 48 49 50

000
ASUS43 KDMX 042007
RWRIA

WEATHER ROUNDUP FOR IOWA
NATIONAL WEATHER SERVICE DES MOINES IA
300 PM CDT MON MAY 04 2015

NOTE: "FAIR" INDICATES FEW OR NO CLOUDS BELOW 12,000 FEET WITH NO
SIGNIFICANT WEATHER AND/OR OBSTRUCTIONS TO VISIBILITY.

* - THESE STATIONS ARE NOT NWS STATIONS...THUS NOT UNDER NWS
QUALITY CONTROL.  THEY ALSO DO NOT REPORT WEATHER SUCH
AS PRECIPITATION OR FOG.

IAZ001>003-012>014-020>022-031>034-043>046-042100-
   NORTHWEST IOWA

CITY           SKY/WX    TMP DP  RH WIND       PRES   REMARKS
CARROLL *      PTSUNNY   66  52  59 E23       30.08F
CHEROKEE *     CLOUDY    68  37  32 E15       30.14S
DENISON *      PTSUNNY   66  48  52 E10G22    30.09R
LE MARS *      MOSUNNY   72  36  26 E14       30.15S
ORANGE CITY *  SUNNY     70  34  26 E15G23    30.14F
SHELDON *      SUNNY     72  37  28 E14G22    30.14S
SIOUX CITY     LGT RAIN  66  48  52 E10       30.14S
SPENCER        CLOUDY    70  38  31 E16G25    30.15S
STORM LAKE *   MOSUNNY   63  45  51 E16       30.15S
$$

IAZ055>058-069>071-079>083-090>094-042100-
   SOUTHWEST IOWA

CITY           SKY/WX    TMP DP  RH WIND       PRES   REMARKS
ATLANTIC *     PTSUNNY   66  61  82 E8        30.08R
AUDUBON *      LGT RAIN  64  59  82 E12       30.09R
CLARINDA *     MOSUNNY   70  63  78 N6        30.08R
COUNCIL BLFS * CLOUDY    64  64 100 E6        30.10S
CRESTON *      MOSUNNY   68  63  83 E16       30.06S
HARLAN  *      LGT RAIN  66  64  94 NE6       30.13R
LAMONI         CLOUDY    71  61  70 NE10      30.06S
RED OAK *      LGT RAIN  66  63  88 NE5       30.10R
SHENANDOAH *   CLOUDY    66  63  88 NE8       30.08R
$$

IAZ047>049-059>061-072>074-084-042100-
   CENTRAL IOWA

CITY           SKY/WX    TMP DP  RH WIND       PRES   REMARKS
AMES           CLOUDY    67  57  70 NE9       30.10F
ANKENY *       PTSUNNY   70  59  68 NE14      30.06F
CHARITON *     MOSUNNY   73  63  68 NE12G18   30.05F
DES MOINES     LGT RAIN  69  60  73 E12       30.06F
GRINNELL*      CLOUDY    70  59  68 NE14      30.10F
KNOXVILLE *    SUNNY     72  63  73 NE10G16   30.04F
MARSHALLTOWN   CLOUDY    68  60  75 NE12      30.11S
PELLA *        LGT RAIN  72  64  78 NE8       30.07F
PERRY *        CLOUDY    68  57  68 NE15G21   30.08F
$$

IAZ004>006-015-016-023>025-035-036-042100-
   NORTH CENTRAL IOWA

CITY           SKY/WX    TMP DP  RH WIND       PRES   REMARKS
ALGONA *       SUNNY     70  39  32 NE14G21   30.16R
CLARION *      PTSUNNY   68  43  40 E16G22    30.15R
ESTHERVILLE    CLOUDY    69  32  25 E17G25    30.15F
FORT DODGE *   CLOUDY    64  45  48 NE14      30.14F
MASON CITY     PTSUNNY   69  40  34 E16G23    30.16S
FOREST CITY *  SUNNY     68  36  30 NE10G18   30.15F
IOWA FALLS *   PTSUNNY   66  50  55 NE10      30.14F
$$

IAZ007>011-017>019-026>030-037>042-050>054-066-042100-
   NORTHEAST IOWA

CITY           SKY/WX    TMP DP  RH WIND       PRES   REMARKS
CEDAR RAPIDS   CLOUDY    70  62  76 NE9       30.10S
CHARLES CITY * SUNNY     68  43  40 NE15      30.15S
CLINTON *      PTSUNNY   73  61  64 E7        30.13F
DECORAH *      SUNNY     70  43  37 VRB6G13   30.14S
DUBUQUE        MOSUNNY   73  60  63 NE8       30.12S
MONTICELLO *   CLOUDY    72  61  68 NE7       30.11S
OELWEIN *      MOSUNNY   70  57  64 NE14      30.13S
WATERLOO       CLOUDY    69  57  65 NE12      30.12S
$$

IAZ064-065-067-068-078-042100-
   EAST CENTRAL IOWA

CITY           SKY/WX    TMP DP  RH WIND       PRES   REMARKS
DAVENPORT      PTSUNNY   72  61  68 NE10      30.11S
IOWA CITY      PTSUNNY   73  63  70 NE12      30.10S
MT. PLEASANT * PTSUNNY   81  57  44 CALM      30.04F HX  81
MUSCATINE *    MOSUNNY   75  63  64 NE14      30.07F
QUAD CITIES    CLOUDY    75  61  61 E10       30.08F
$$

IAZ062-063-075>077-085>089-095>099-042100-
   SOUTHEAST IOWA

CITY           SKY/WX    TMP DP  RH WIND       PRES   REMARKS
BURLINGTON     PTSUNNY   77  58  51 S7        30.06S
FAIRFIELD *    SUNNY     79  57  47 CALM      30.05S HX  80
FORT MADISON * MOSUNNY   81  61  50 S9        30.06F HX  81
KEOKUK *       SUNNY     81  63  54 SE8       30.03F HX  82
OSKALOOSA *      N/A     75  61  60 NE14      30.06S
CENTERVILLE *  SUNNY     75  64  69 E6        30.07S
OTTUMWA        CLOUDY    78  60  53 NE13      30.04S
WASHINGTON *   MOSUNNY   77  70  78 NE13      30.07S
$$

ABBREVIATIONS USED IN REMARKS
   TC - TEMPERATURES IN CELSIUS
  WCI - WIND CHILL INDEX
   HX - HEAT INDEX
  VSB - VISIBILITY
$$



USA.gov is the U.S. government's official web portal to all federal, state and local government web resources and services.